Location: Columbia
(38.9520°N, 92.3340°W)
Time: 16:53:45
(UTC-05:00)

Meteor 1-4 Rocket - Visible Passes

Search period start: 24 March 2017 00:00
Search period end: 03 April 2017 00:00
Orbit: 453 x 511 km, 81.2° (Epoch: 23 March)

Date Brightness Start Highest point End Pass type
(mag) Time Alt. Az. Time Alt. Az. Time Alt. Az.
24 Mar 2.4 20:46:04 10° S 20:49:28 59° E 20:52:54 10° NNE visible
25 Mar 3.1 20:20:52 10° SSE 20:24:01 33° E 20:27:11 10° NNE visible
25 Mar 5.9 21:58:09 10° W 21:59:19 11° WNW 22:00:30 10° NW visible
26 Mar 3.8 19:56:01 10° SE 19:58:37 20° E 20:01:12 10° NE visible
26 Mar 5.3 21:31:10 10° WSW 21:33:40 18° WNW 21:36:09 10° NNW visible
27 Mar 4.5 21:04:58 10° SW 21:08:03 30° WNW 21:11:09 10° NNW visible
28 Mar 3.3 20:39:06 10° SSW 20:42:29 52° W 20:45:54 10° N visible
29 Mar 5.8 06:31:22 10° NNE 06:34:00 19° ENE 06:36:39 10° ESE visible
29 Mar 2.4 20:13:29 10° S 20:16:57 86° E 20:20:26 10° N visible
30 Mar 6.4 06:06:56 10° NE 06:08:21 12° ENE 06:09:45 10° E visible
31 Mar 6.0 20:59:21 10° WSW 21:01:13 14° WNW 21:03:05 10° NW visible
01 Apr 5.3 20:32:48 10° SW 20:35:33 22° WNW 20:38:21 10° NNW visible
02 Apr 4.3 06:23:37 10° N 06:27:08 40° ENE 06:30:41 10° SSE visible
02 Apr 4.3 20:06:43 10° SW 20:09:56 36° WNW 20:13:13 10° N visible
